Regional Weather Roundup
Issued by NWS

Home | Current Version | Previous Version | Text Only | Print | Product List | Glossary Off
Versions: 1 2 3 4 5 6 7 8 9 10 11 12 13 14 15 16 17 18 19 20 21 22 23 24 25 26 27 28 29 30 31 32 33 34 35 36 37 38 39 40 41 42 43 44 45 46 47 48 49 50

000
ASUS43 KBIS 211010
RWRND

NORTH DAKOTA REGIONAL WEATHER ROUNDUP
NATIONAL WEATHER SERVICE BISMARCK ND
500 AM CDT FRI JUL 21 2017

NOTE: "FAIR" INDICATES FEW OR NO CLOUDS BELOW 12,000 FEET WITH NO
SIGNIFICANT WEATHER AND/OR OBSTRUCTIONS TO VISIBILITY.


NDZ001>003-009>011-017-211100-
NORTHWEST NORTH DAKOTA

CITY           SKY/WX    TMP DP  RH WIND       PRES   REMARKS
WILLISTON      CLOUDY    69  58  67 N14       29.82S
MINOT          CLOUDY    68  57  68 SE6       29.77R
MINOT AFB      CLOUDY    65  59  79 N7        29.78R
$$

NDZ018>021-031>035-040>046-211100-
SOUTHWEST NORTH DAKOTA

CITY           SKY/WX    TMP DP  RH WIND       PRES   REMARKS
BISMARCK       MOCLDY    68  63  84 CALM      29.79S
DICKINSON      CLOUDY    69  62  78 SW16      29.79R
GARRISON         N/A     64  59  83 SE9       29.78F
HETTINGER ARPT CLOUDY    68  60  75 S8        29.86R
$$

NDZ004>008-012>016-024-026-027-054-211100-
NORTHEAST NORTH DAKOTA

CITY           SKY/WX    TMP DP  RH WIND       PRES   REMARKS
GRAND FORKS    MOCLDY    71  67  87 SE8       29.82F
GRND FRKS AFB  CLOUDY    69  65  89 SE6       29.83F
DEVILS LAKE    PTCLDY    71  65  81 E9        29.82F
$$

NDZ022-023-025-028>030-036>039-047>053-211100-
SOUTHEAST NORTH DAKOTA

CITY           SKY/WX    TMP DP  RH WIND       PRES   REMARKS
FARGO          CLOUDY    75  69  81 S14G20    29.82F
JAMESTOWN      CLOUDY    67  65  93 E6        29.80S
$$





USA.gov is the U.S. government's official web portal to all federal, state and local government web resources and services.